SCOUT G-1 DEB, 44571

Orbit data source: Space-Track

SCOUT G-1 DEB, 44571 is space debris in LEO originally from a launch on Sat, 03 Aug 1985 UTC launched from the Air Force Western Test Range (AFWTR). Debris objects in space refer to the collection of defunct objects orbiting the Earth. Examples of debris include non-operational satellites, rocket bodies, and fragments generated from explosions, collisions, or faulty payload assembly.

Loading next visibility...
Identifier
44571, 1985-066K
Orbit
LEO
Country
Flag of USUS
Related business
Manufacturer
Unknown
Mission
Spacecraft
Bus & Motor
Unknown
Mass
Unknown
Launch date (UTC)
1985-08-03 (41 years ago)
Launch vehicle
Unknown
Launch site
Air Force Western Test Range (AFWTR)
Object type
Payload
Rocket body
Debris
Shape & HBR
Unknown shape, 0.1 m
Radar Cross Section
Small (<0.1 m²)

Expand to show TLE details & history
Last TLE update: 3 days ago

TLE from 3 days ago
0 SCOUT G-1 DEB
1 44571U 85066K   26170.02668092  .00000673  00000-0  10975-2 0  9995
2 44571  90.1660  88.8734 0149009 197.1819 162.4254 13.42665766658865
Epoch: 2026-06-19T00:38Z
TLE epoch observation values (Epoch: 2026-06-19T00:38:25.231Z)
Latitude
-0.00002°
Longitude
172.00671°
Altitude
1,208.699 km
Speed
7.198 km/s
True Right ascension
05h 55m 29s
True Declination
0° 00' 00"
Sunlit
Object was in daylight at epoch
Visualization orbit readout
Latitude
Unknown
Longitude
Unknown
Altitude
Unknown
Speed
Unknown
Apparent Right ascension
Unknown
Apparent Declination
Unknown
Sunlit
N/A
Visualization observer readout
Local Sidereal Time
21:23:49
Azimuth
Unknown
Elevation
Unknown
Doppler factor
Unknown
Orbital elements
Apogee altitude
1,207.803 km
Perigee altitude
985.047 km
Semi-major axis
7,474.562 km
Eccentricity
0.0149
Inclination
90.166°
RAAN
88.8734°
Arg. of periapsis
197.1819°
True anomaly
162.93197°
Mean anomaly
162.4254°
Eccentric anomaly
162.67958°
Mean motion
3.35865 °/min
Orbital period
107.19 mins
BSTAR
0.0010975
Loading maneuver chart data...
Computing Atmospheric mass density...
Loading historical data...
Loading historical data...
Loading historical data...
Loading historical data...
Loading historical data...
Loading historical data...
Loading historical data...

Documentation

Showing up to 5 results
|